Buffalo, NY

7:46 PM EDT on September 22, 2017 (GMT -0400)
Buffalo Niagara International

Weather History for KBUF - November, 2013

Change the Weather History Date:

Monday, November 11, 2013

  Actual Average Record
Temperature  
Mean Temperature 37 °F 42 °F  
Max Temperature 45 °F 50 °F 70 °F (2012)
Min Temperature 29 °F 35 °F 19 °F (1957)
Degree Days  
Heating Degree Days 28 23  
Month to date heating degree days 232 231  
Since 1 July heating degree days 737 836  
Cooling Degree Days 0 0  
Month to date cooling degree days 0 0  
Year to date cooling degree days 611 544  
Moisture  
Dew Point 31 °F    
Average Humidity 75    
Maximum Humidity 92    
Minimum Humidity 58    
Precipitation  
Precipitation 0.48 in 0.13 in 1.40 in (1995)
Month to date precipitation 1.50 1.43  
Year to date precipitation 39.66 34.01  
Snow  
Snow 0.70 in 0.20 in 5.30 in (1942)
Month to date snowfall 0.7 1.7  
Since 1 July snowfall 0.7 2.6  
Since 1 September snowfall 0.7 2.6  
Snow Depth 0.00 in    
Sea Level Pressure  
Sea Level Pressure 30.06 in    
Wind  
Wind Speed 13 mph (West)    
Max Wind Speed 31 mph    
Max Gust Speed 40 mph    
Visibility 6 miles    
Events Rain , Snow    
T = Trace of Precipitation, MM = Missing Value Source: NWS Daily Summary

Daily Weather History Graph

Daily Weather History Graph

Search for Another Location

Airport or City:

Trip Planner

Search our weather history database for the weather conditions in past years. The results will help you decide how hot, cold, wet, or windy it might be!

Date:

Astronomy

Nov. 11, 2013 Rise Set
Actual Time 7:02 AM EST 4:55 PM EST
Civil Twilight 6:32 AM EST 5:25 PM EST
Nautical Twilight 5:58 AM EST 5:59 PM EST
Astronomical Twilight 5:24 AM EST 6:32 PM EST
Moon 1:43 PM EST (11/11) 12:36 AM EST (11/11)
Length of Visible Light 10h 53m
Length of Day
9h 52m
Waxing Gibbous, 66% of the Moon is Illuminated
Nov 11
Waxing Gibbous
Nov 17
Full
Nov 25
Last Quarter
Dec 2
New
Dec 9
First Quarter

Hourly Weather History & Observations

Time (EST) Temp. Windchill Dew Point Humidity Pressure Visibility Wind Dir Wind Speed Gust Speed Precip Events Conditions
12:54 AM 37.0 °F 30.4 °F 28.9 °F 73% 30.20 in 10.0 mi WSW 9.2 mph - N/A   Scattered Clouds
1:54 AM 36.0 °F 31.1 °F 28.9 °F 76% 30.19 in 10.0 mi WSW 5.8 mph - N/A   Scattered Clouds
2:54 AM 35.1 °F 31.0 °F 28.9 °F 78% 30.18 in 10.0 mi WSW 4.6 mph - N/A   Scattered Clouds
3:54 AM 35.1 °F 30.1 °F 28.9 °F 78% 30.17 in 10.0 mi SW 5.8 mph - N/A   Partly Cloudy
4:54 AM 37.0 °F 33.3 °F 30.0 °F 76% 30.16 in 10.0 mi WSW 4.6 mph - N/A   Mostly Cloudy
5:54 AM 37.9 °F 34.4 °F 28.0 °F 68% 30.14 in 10.0 mi West 4.6 mph - N/A   Mostly Cloudy
6:54 AM 42.1 °F 35.2 °F 32.0 °F 67% 30.11 in 10.0 mi SW 12.7 mph 18.4 mph N/A   Mostly Cloudy
7:54 AM 41.0 °F 33.5 °F 30.9 °F 67% 30.11 in 10.0 mi SSW 13.8 mph - N/A   Mostly Cloudy
8:54 AM 42.1 °F 34.5 °F 32.0 °F 67% 30.09 in 10.0 mi SSW 15.0 mph - N/A   Overcast
9:54 AM 43.0 °F 35.4 °F 33.1 °F 68% 30.05 in 10.0 mi SSW 16.1 mph - N/A   Overcast
10:54 AM 44.1 °F 35.9 °F 30.9 °F 60% 30.03 in 10.0 mi SW 19.6 mph 26.5 mph N/A   Overcast
11:54 AM 45.0 °F 36.6 °F 30.9 °F 58% 30.01 in 10.0 mi SW 21.9 mph 26.5 mph N/A   Overcast
12:54 PM 44.1 °F 35.2 °F 34.0 °F 68% 29.97 in 9.0 mi SW 23.0 mph 35.7 mph 0.00 in Rain Light Rain
1:52 PM 44.6 °F 35.5 °F 35.6 °F 71% 29.92 in 5.0 mi WSW 25.3 mph 35.7 mph 0.02 in Rain Light Rain
1:54 PM 44.1 °F 35.7 °F 36.0 °F 73% 29.94 in 5.0 mi WSW 20.7 mph 35.7 mph 0.02 in Rain Light Rain
2:37 PM 42.8 °F 33.8 °F 37.4 °F 81% 29.92 in 2.0 mi WSW 21.9 mph 35.7 mph 0.08 in Rain Heavy Rain
2:54 PM 42.1 °F 34.2 °F 39.0 °F 89% 29.95 in 3.0 mi West 16.1 mph - 0.12 in Rain Rain
3:54 PM 41.0 °F 32.2 °F 37.9 °F 89% 29.96 in 3.0 mi West 18.4 mph 27.6 mph 0.07 in Rain Rain
4:33 PM 39.2 °F 31.6 °F 37.4 °F 93% 29.94 in 4.0 mi West 12.7 mph 23.0 mph 0.04 in Rain Light Rain
4:54 PM 39.0 °F 30.3 °F 36.0 °F 89% 29.97 in 4.0 mi West 16.1 mph 25.3 mph 0.05 in Rain Light Rain
5:54 PM 39.0 °F 30.3 °F 36.0 °F 89% 29.99 in 5.0 mi West 16.1 mph 27.6 mph 0.07 in Rain Light Rain
6:08 PM 35.6 °F 26.2 °F 33.8 °F 93% 29.98 in 4.0 mi NW 15.0 mph 25.3 mph 0.01 in Rain Rain
6:54 PM 34.0 °F 24.2 °F 32.0 °F 92% 30.03 in 3.0 mi NW 15.0 mph - 0.06 in Snow Light Snow
7:02 PM 33.8 °F 25.8 °F 32.0 °F 93% 30.01 in 1.5 mi NW 10.4 mph 19.6 mph 0.01 in Snow Light Snow
7:35 PM 32.0 °F 23.0 °F 30.2 °F 93% 30.03 in 1.8 mi NW 11.5 mph - 0.04 in Snow Light Snow
7:46 PM 32.0 °F 23.6 °F 30.2 °F 93% 30.03 in 1.5 mi NW 10.4 mph 23.0 mph 0.04 in Snow Light Snow
7:54 PM 32.0 °F 23.6 °F 30.0 °F 92% 30.06 in 1.5 mi WNW 10.4 mph - 0.04 in Snow Light Snow
8:27 PM 32.0 °F 22.1 °F 30.2 °F 93% 30.05 in 0.8 mi NW 13.8 mph - 0.02 in Snow Light Snow
8:39 PM 30.2 °F 20.2 °F 28.4 °F 93% 30.06 in 1.0 mi NW 12.7 mph - 0.03 in Snow Light Snow
8:54 PM 30.9 °F 20.7 °F 28.0 °F 89% 30.09 in 1.8 mi NNW 13.8 mph 23.0 mph 0.04 in Snow Light Snow
9:25 PM 30.2 °F 22.6 °F 26.6 °F 86% 30.08 in 2.5 mi NW 8.1 mph - 0.01 in Snow Light Snow
9:48 PM 30.2 °F 23.4 °F 24.8 °F 80% 30.08 in 9.0 mi West 6.9 mph - 0.01 in Snow Light Snow
9:54 PM 30.0 °F 24.1 °F 24.1 °F 79% 30.11 in 9.0 mi West 5.8 mph - 0.01 in Snow Light Snow
10:54 PM 32.0 °F 26.4 °F 21.9 °F 66% 30.13 in 9.0 mi WNW 5.8 mph - 0.00 in   Overcast
11:54 PM 30.9 °F 23.5 °F 21.9 °F 69% 30.15 in 10.0 mi NW 8.1 mph - N/A   Overcast